Time,TemperatureF,DewpointF,PressureIn,WindDirection,WindDirectionDegrees,WindSpeedMPH,WindSpeedGustMPH,Humidity,HourlyPrecipIn,Conditions,Clouds,dailyrainin,SoftwareType,DateUTC
2013-09-01 00:01:00,85.9,67.3,29.78,SE,143,0.0,1.0,54,0.00,,,0.00,WeatherCatV1.21B27,2013-09-01 05:01:00,
2013-09-01 00:06:00,85.7,67.6,29.78,SW,236,0.0,3.0,55,0.00,,,0.00,WeatherCatV1.21B27,2013-09-01 05:06:00,
2013-09-01 00:11:00,85.5,67.4,29.77,SW,214,0.0,0.0,55,0.00,,,0.00,WeatherCatV1.21B27,2013-09-01 05:11:00,
2013-09-01 00:16:00,85.3,67.3,29.77,West,259,0.0,1.0,55,0.00,,,0.00,WeatherCatV1.21B27,2013-09-01 05:16:00,
2013-09-01 00:21:00,85.1,67.1,29.78,South,178,0.0,0.0,55,0.00,,,0.00,WeatherCatV1.21B27,2013-09-01 05:21:00,
2013-09-01 00:26:00,84.9,67.4,29.78,SW,231,0.0,0.0,56,0.00,,,0.00,WeatherCatV1.21B27,2013-09-01 05:26:00,
2013-09-01 00:31:00,84.6,67.7,29.78,SW,231,0.0,0.0,57,0.00,,,0.00,WeatherCatV1.21B27,2013-09-01 05:31:00,
2013-09-01 00:36:00,84.3,67.9,29.78,SSW,207,0.0,0.0,58,0.00,,,0.00,WeatherCatV1.21B27,2013-09-01 05:36:00,
2013-09-01 00:41:00,83.9,68.0,29.78,SW,226,0.0,0.0,59,0.00,,,0.00,WeatherCatV1.21B27,2013-09-01 05:41:00,
2013-09-01 00:46:00,83.8,67.9,29.78,SSE,154,2.0,2.0,59,0.00,,,0.00,WeatherCatV1.21B27,2013-09-01 05:46:00,
2013-09-01 00:51:00,84.0,68.1,29.78,South,170,0.0,2.0,59,0.00,,,0.00,WeatherCatV1.21B27,2013-09-01 05:51:00,
2013-09-01 00:56:00,84.0,68.1,29.78,SSW,193,0.0,1.0,59,0.00,,,0.00,WeatherCatV1.21B27,2013-09-01 05:56:00,
2013-09-01 01:01:00,83.9,68.0,29.78,SW,218,0.0,1.0,59,0.00,,,0.00,WeatherCatV1.21B27,2013-09-01 06:01:00,
2013-09-01 01:06:00,83.8,67.9,29.78,ESE,120,2.0,2.0,59,0.00,,,0.00,WeatherCatV1.21B27,2013-09-01 06:06:00,
2013-09-01 01:11:00,83.8,67.9,29.78,South,185,0.0,3.0,59,0.00,,,0.00,WeatherCatV1.21B27,2013-09-01 06:11:00,
2013-09-01 01:16:00,83.7,67.8,29.79,SSW,212,0.0,1.0,59,0.00,,,0.00,WeatherCatV1.21B27,2013-09-01 06:16:00,
2013-09-01 01:21:00,83.6,68.2,29.79,SSW,210,0.0,0.0,60,0.00,,,0.00,WeatherCatV1.21B27,2013-09-01 06:21:00,
2013-09-01 01:26:00,83.4,68.0,29.78,SSE,157,1.0,2.0,60,0.00,,,0.00,WeatherCatV1.21B27,2013-09-01 06:26:00,
2013-09-01 01:31:00,83.2,67.8,29.78,WSW,238,3.0,3.0,60,0.00,,,0.00,WeatherCatV1.21B27,2013-09-01 06:31:00,
2013-09-01 01:36:00,83.0,68.1,29.79,SW,235,0.0,1.0,61,0.00,,,0.00,WeatherCatV1.21B27,2013-09-01 06:36:00,
2013-09-01 01:41:00,82.9,67.6,29.79,WSW,246,0.0,2.0,60,0.00,,,0.00,WeatherCatV1.21B27,2013-09-01 06:41:00,
2013-09-01 01:46:00,82.7,67.8,29.79,SW,221,0.0,0.0,61,0.00,,,0.00,WeatherCatV1.21B27,2013-09-01 06:46:00,
2013-09-01 01:51:00,82.5,68.1,29.79,SW,217,0.0,3.0,62,0.00,,,0.00,WeatherCatV1.21B27,2013-09-01 06:51:00,
2013-09-01 01:56:00,82.3,67.9,29.79,West,271,0.0,1.0,62,0.00,,,0.00,WeatherCatV1.21B27,2013-09-01 06:56:00,
2013-09-01 02:01:00,82.3,67.9,29.79,SW,222,0.0,2.0,62,0.00,,,0.00,WeatherCatV1.21B27,2013-09-01 07:01:00,
2013-09-01 02:06:00,82.3,67.9,29.79,SSW,200,0.0,1.0,62,0.00,,,0.00,WeatherCatV1.21B27,2013-09-01 07:06:00,
2013-09-01 02:11:00,82.1,68.2,29.79,SW,217,0.0,0.0,63,0.00,,,0.00,WeatherCatV1.21B27,2013-09-01 07:11:00,
2013-09-01 02:16:00,81.8,68.4,29.79,WSW,240,0.0,1.0,64,0.00,,,0.00,WeatherCatV1.21B27,2013-09-01 07:16:00,
2013-09-01 02:21:00,81.7,68.3,29.79,SW,222,0.0,0.0,64,0.00,,,0.00,WeatherCatV1.21B27,2013-09-01 07:21:00,
2013-09-01 02:26:00,81.6,68.2,29.80,SW,233,0.0,1.0,64,0.00,,,0.00,WeatherCatV1.21B27,2013-09-01 07:26:00,
2013-09-01 02:31:00,81.5,68.6,29.80,SW,231,0.0,0.0,65,0.00,,,0.00,WeatherCatV1.21B27,2013-09-01 07:31:00,
2013-09-01 02:36:00,81.2,68.3,29.80,SW,216,0.0,0.0,65,0.00,,,0.00,WeatherCatV1.21B27,2013-09-01 07:36:00,
2013-09-01 02:41:00,81.0,68.5,29.80,SW,228,0.0,1.0,66,0.00,,,0.00,WeatherCatV1.21B27,2013-09-01 07:41:00,
2013-09-01 02:46:00,80.8,68.4,29.80,SW,226,0.0,0.0,66,0.00,,,0.00,WeatherCatV1.21B27,2013-09-01 07:46:00,
2013-09-01 02:51:00,80.6,68.6,29.80,SW,226,0.0,1.0,67,0.00,,,0.00,WeatherCatV1.21B27,2013-09-01 07:51:00,
2013-09-01 02:56:00,80.6,68.6,29.80,SW,231,0.0,0.0,67,0.00,,,0.00,WeatherCatV1.21B27,2013-09-01 07:56:00,
2013-09-01 03:01:00,80.5,68.5,29.80,SW,231,0.0,0.0,67,0.00,,,0.00,WeatherCatV1.21B27,2013-09-01 08:01:00,
2013-09-01 03:06:00,80.3,68.3,29.80,SW,231,0.0,1.0,67,0.00,,,0.00,WeatherCatV1.21B27,2013-09-01 08:06:00,
2013-09-01 03:11:00,80.1,68.6,29.80,SW,224,0.0,0.0,68,0.00,,,0.00,WeatherCatV1.21B27,2013-09-01 08:11:00,
2013-09-01 03:16:00,80.0,68.5,29.80,SW,223,0.0,1.0,68,0.00,,,0.00,WeatherCatV1.21B27,2013-09-01 08:16:00,
2013-09-01 03:21:00,79.9,68.4,29.80,WSW,250,0.0,0.0,68,0.00,,,0.00,WeatherCatV1.21B27,2013-09-01 08:21:00,
2013-09-01 03:26:00,79.8,68.7,29.80,WSW,240,0.0,1.0,69,0.00,,,0.00,WeatherCatV1.21B27,2013-09-01 08:26:00,
2013-09-01 03:31:00,79.7,68.6,29.80,SW,225,0.0,2.0,69,0.00,,,0.00,WeatherCatV1.21B27,2013-09-01 08:31:00,
2013-09-01 03:36:00,79.6,68.5,29.80,SW,230,0.0,0.0,69,0.00,,,0.00,WeatherCatV1.21B27,2013-09-01 08:36:00,
2013-09-01 03:41:00,79.5,68.8,29.80,SW,232,0.0,1.0,70,0.00,,,0.00,WeatherCatV1.21B27,2013-09-01 08:41:00,
2013-09-01 03:46:00,79.4,68.7,29.80,SSW,201,0.0,0.0,70,0.00,,,0.00,WeatherCatV1.21B27,2013-09-01 08:46:00,
2013-09-01 03:51:00,79.2,68.6,29.80,SW,214,0.0,0.0,70,0.00,,,0.00,WeatherCatV1.21B27,2013-09-01 08:51:00,
2013-09-01 03:56:00,79.0,68.8,29.80,SW,214,0.0,0.0,71,0.00,,,0.00,WeatherCatV1.21B27,2013-09-01 08:56:00,
2013-09-01 04:01:00,79.0,68.8,29.80,SW,214,0.0,0.0,71,0.00,,,0.00,WeatherCatV1.21B27,2013-09-01 09:01:00,
2013-09-01 04:06:00,79.0,68.8,29.80,SW,214,0.0,0.0,71,0.00,,,0.00,WeatherCatV1.21B27,2013-09-01 09:06:00,
2013-09-01 04:11:00,78.9,68.7,29.80,SW,229,0.0,0.0,71,0.00,,,0.00,WeatherCatV1.21B27,2013-09-01 09:11:00,
2013-09-01 04:16:00,78.7,68.5,29.80,WSW,250,0.0,0.0,71,0.00,,,0.00,WeatherCatV1.21B27,2013-09-01 09:16:00,
2013-09-01 04:21:00,78.5,68.7,29.80,WSW,249,0.0,0.0,72,0.00,,,0.00,WeatherCatV1.21B27,2013-09-01 09:21:00,
2013-09-01 04:26:00,78.3,68.5,29.80,WSW,249,0.0,0.0,72,0.00,,,0.00,WeatherCatV1.21B27,2013-09-01 09:26:00,
2013-09-01 04:31:00,78.3,68.5,29.80,WSW,248,0.0,0.0,72,0.00,,,0.00,WeatherCatV1.21B27,2013-09-01 09:31:00,
2013-09-01 04:36:00,78.2,68.4,29.81,WSW,248,0.0,1.0,72,0.00,,,0.00,WeatherCatV1.21B27,2013-09-01 09:36:00,
2013-09-01 04:41:00,78.2,68.8,29.81,West,261,0.0,0.0,73,0.00,,,0.00,WeatherCatV1.21B27,2013-09-01 09:41:00,
2013-09-01 04:46:00,78.1,68.3,29.81,West,261,0.0,0.0,72,0.00,,,0.00,WeatherCatV1.21B27,2013-09-01 09:46:00,
2013-09-01 04:51:00,78.0,68.6,29.81,West,261,0.0,0.0,73,0.00,,,0.00,WeatherCatV1.21B27,2013-09-01 09:51:00,
2013-09-01 04:56:00,78.0,68.6,29.81,West,261,0.0,0.0,73,0.00,,,0.00,WeatherCatV1.21B27,2013-09-01 09:56:00,
2013-09-01 05:01:00,77.9,68.9,29.81,West,261,0.0,0.0,74,0.00,,,0.00,WeatherCatV1.21B27,2013-09-01 10:01:00,
2013-09-01 05:06:00,77.9,68.9,29.81,West,259,0.0,0.0,74,0.00,,,0.00,WeatherCatV1.21B27,2013-09-01 10:06:00,
2013-09-01 05:11:00,77.8,68.8,29.81,West,259,0.0,0.0,74,0.00,,,0.00,WeatherCatV1.21B27,2013-09-01 10:11:00,
2013-09-01 05:16:00,77.8,68.8,29.81,West,259,0.0,0.0,74,0.00,,,0.00,WeatherCatV1.21B27,2013-09-01 10:16:00,
2013-09-01 05:21:00,77.7,68.7,29.81,West,259,0.0,0.0,74,0.00,,,0.00,WeatherCatV1.21B27,2013-09-01 10:21:00,
2013-09-01 05:26:00,77.6,69.0,29.81,West,259,0.0,0.0,75,0.00,,,0.00,WeatherCatV1.21B27,2013-09-01 10:26:00,
2013-09-01 05:31:00,77.5,68.9,29.81,West,259,0.0,0.0,75,0.00,,,0.00,WeatherCatV1.21B27,2013-09-01 10:31:00,
2013-09-01 05:36:00,77.4,68.8,29.81,West,259,0.0,0.0,75,0.00,,,0.00,WeatherCatV1.21B27,2013-09-01 10:36:00,
2013-09-01 05:41:00,77.4,68.8,29.81,West,271,0.0,0.0,75,0.00,,,0.00,WeatherCatV1.21B27,2013-09-01 10:41:00,
2013-09-01 05:46:00,77.5,68.9,29.82,West,268,0.0,0.0,75,0.00,,,0.00,WeatherCatV1.21B27,2013-09-01 10:46:00,
2013-09-01 05:51:00,77.5,68.9,29.82,West,268,0.0,0.0,75,0.00,,,0.00,WeatherCatV1.21B27,2013-09-01 10:51:00,
2013-09-01 05:56:00,77.5,68.9,29.82,West,269,0.0,0.0,75,0.00,,,0.00,WeatherCatV1.21B27,2013-09-01 10:56:00,
2013-09-01 06:01:00,77.4,68.8,29.82,SW,233,0.0,0.0,75,0.00,,,0.00,WeatherCatV1.21B27,2013-09-01 11:01:00,
2013-09-01 06:06:00,77.4,68.8,29.82,SW,233,0.0,0.0,75,0.00,,,0.00,WeatherCatV1.21B27,2013-09-01 11:06:00,
2013-09-01 06:11:00,77.4,68.8,29.82,WSW,257,0.0,0.0,75,0.00,,,0.00,WeatherCatV1.21B27,2013-09-01 11:11:00,
2013-09-01 06:16:00,77.3,68.7,29.82,WSW,257,0.0,0.0,75,0.00,,,0.00,WeatherCatV1.21B27,2013-09-01 11:16:00,
2013-09-01 06:21:00,77.3,68.7,29.82,WSW,255,0.0,0.0,75,0.00,,,0.00,WeatherCatV1.21B27,2013-09-01 11:21:00,
2013-09-01 06:26:00,77.2,69.0,29.82,WSW,254,0.0,0.0,76,0.00,,,0.00,WeatherCatV1.21B27,2013-09-01 11:26:00,
2013-09-01 06:31:00,77.2,69.0,29.82,WSW,243,0.0,0.0,76,0.00,,,0.00,WeatherCatV1.21B27,2013-09-01 11:31:00,
2013-09-01 06:36:00,77.2,69.0,29.82,WSW,243,0.0,0.0,76,0.00,,,0.00,WeatherCatV1.21B27,2013-09-01 11:36:00,
2013-09-01 06:41:00,77.1,68.9,29.82,WSW,243,0.0,0.0,76,0.00,,,0.00,WeatherCatV1.21B27,2013-09-01 11:41:00,
2013-09-01 06:46:00,77.0,69.2,29.83,WSW,243,0.0,0.0,77,0.00,,,0.00,WeatherCatV1.21B27,2013-09-01 11:46:00,
2013-09-01 06:51:00,76.7,68.9,29.83,WSW,243,0.0,0.0,77,0.00,,,0.00,WeatherCatV1.21B27,2013-09-01 11:51:00,
2013-09-01 06:56:00,76.4,69.0,29.83,WSW,243,0.0,0.0,78,0.00,,,0.00,WeatherCatV1.21B27,2013-09-01 11:56:00,
2013-09-01 07:01:00,76.5,69.1,29.83,WSW,243,0.0,0.0,78,0.00,,,0.00,WeatherCatV1.21B27,2013-09-01 12:01:00,
2013-09-01 07:06:00,76.6,69.2,29.83,WSW,243,0.0,0.0,78,0.00,,,0.00,WeatherCatV1.21B27,2013-09-01 12:06:00,
2013-09-01 07:11:00,76.6,68.8,29.83,WSW,243,0.0,0.0,77,0.00,,,0.00,WeatherCatV1.21B27,2013-09-01 12:11:00,
2013-09-01 07:16:00,76.4,69.0,29.83,WSW,243,0.0,0.0,78,0.00,,,0.00,WeatherCatV1.21B27,2013-09-01 12:16:00,
2013-09-01 07:21:00,76.0,69.0,29.83,WSW,243,0.0,0.0,79,0.00,,,0.00,WeatherCatV1.21B27,2013-09-01 12:21:00,
2013-09-01 07:26:00,75.9,69.3,29.83,WSW,243,0.0,0.0,80,0.00,,,0.00,WeatherCatV1.21B27,2013-09-01 12:26:00,
2013-09-01 07:31:00,75.9,69.3,29.83,WSW,243,0.0,0.0,80,0.00,,,0.00,WeatherCatV1.21B27,2013-09-01 12:31:00,
2013-09-01 07:36:00,76.0,69.4,29.83,WSW,241,0.0,0.0,80,0.00,,,0.00,WeatherCatV1.21B27,2013-09-01 12:36:00,
2013-09-01 07:41:00,76.1,69.5,29.84,WSW,241,0.0,0.0,80,0.00,,,0.00,WeatherCatV1.21B27,2013-09-01 12:41:00,
2013-09-01 07:46:00,76.4,69.8,29.84,WSW,241,0.0,0.0,80,0.00,,,0.00,WeatherCatV1.21B27,2013-09-01 12:46:00,
2013-09-01 07:51:00,76.7,69.7,29.84,WSW,238,0.0,0.0,79,0.00,,,0.00,WeatherCatV1.21B27,2013-09-01 12:51:00,
2013-09-01 07:56:00,77.0,69.6,29.84,SSW,198,0.0,0.0,78,0.00,,,0.00,WeatherCatV1.21B27,2013-09-01 12:56:00,
2013-09-01 08:01:00,77.4,69.6,29.84,SSW,193,0.0,0.0,77,0.00,,,0.00,WeatherCatV1.21B27,2013-09-01 13:01:00,
2013-09-01 08:06:00,77.8,69.6,29.84,SSE,166,0.0,0.0,76,0.00,,,0.00,WeatherCatV1.21B27,2013-09-01 13:06:00,
2013-09-01 08:11:00,78.3,70.1,29.84,SSE,150,0.0,0.0,76,0.00,,,0.00,WeatherCatV1.21B27,2013-09-01 13:11:00,
2013-09-01 08:16:00,79.0,70.0,29.84,SSW,195,0.0,0.0,74,0.00,,,0.00,WeatherCatV1.21B27,2013-09-01 13:16:00,
2013-09-01 08:21:00,79.2,70.2,29.85,ESE,108,0.0,0.0,74,0.00,,,0.00,WeatherCatV1.21B27,2013-09-01 13:21:00,
2013-09-01 08:26:00,79.3,70.3,29.84,ESE,122,1.0,1.0,74,0.00,,,0.00,WeatherCatV1.21B27,2013-09-01 13:26:00,
2013-09-01 08:31:00,79.5,70.5,29.85,SE,134,1.0,2.0,74,0.00,,,0.00,WeatherCatV1.21B27,2013-09-01 13:31:00,
2013-09-01 08:36:00,79.7,70.3,29.85,SE,128,0.0,0.0,73,0.00,,,0.00,WeatherCatV1.21B27,2013-09-01 13:36:00,
2013-09-01 08:41:00,79.9,70.4,29.84,South,180,0.0,0.0,73,0.00,,,0.00,WeatherCatV1.21B27,2013-09-01 13:41:00,
2013-09-01 08:46:00,80.1,70.6,29.84,East,90,2.0,2.0,73,0.00,,,0.00,WeatherCatV1.21B27,2013-09-01 13:46:00,
2013-09-01 08:51:00,80.3,70.8,29.84,West,264,2.0,2.0,73,0.00,,,0.00,WeatherCatV1.21B27,2013-09-01 13:51:00,
2013-09-01 08:56:00,80.9,71.4,29.84,ESE,105,2.0,3.0,73,0.00,,,0.00,WeatherCatV1.21B27,2013-09-01 13:56:00,
2013-09-01 09:01:00,81.1,71.2,29.84,SW,217,1.0,2.0,72,0.00,,,0.00,WeatherCatV1.21B27,2013-09-01 14:01:00,
2013-09-01 09:06:00,81.4,71.1,29.85,West,274,0.0,3.0,71,0.00,,,0.00,WeatherCatV1.21B27,2013-09-01 14:06:00,
2013-09-01 09:11:00,81.6,71.3,29.85,West,276,1.0,4.0,71,0.00,,,0.00,WeatherCatV1.21B27,2013-09-01 14:11:00,
2013-09-01 09:16:00,82.1,71.3,29.85,SSW,195,1.0,6.0,70,0.00,,,0.00,WeatherCatV1.21B27,2013-09-01 14:16:00,
2013-09-01 09:21:00,82.7,71.5,29.85,West,259,2.0,3.0,69,0.00,,,0.00,WeatherCatV1.21B27,2013-09-01 14:21:00,
2013-09-01 09:26:00,83.6,71.9,29.85,SW,226,4.0,4.0,68,0.00,,,0.00,WeatherCatV1.21B27,2013-09-01 14:26:00,
2013-09-01 09:31:00,84.0,71.8,29.85,SW,222,3.0,5.0,67,0.00,,,0.00,WeatherCatV1.21B27,2013-09-01 14:31:00,
2013-09-01 09:36:00,84.4,72.2,29.85,SE,142,2.0,2.0,67,0.00,,,0.00,WeatherCatV1.21B27,2013-09-01 14:36:00,
2013-09-01 09:41:00,85.3,72.2,29.85,SSE,165,1.0,4.0,65,0.00,,,0.00,WeatherCatV1.21B27,2013-09-01 14:41:00,
2013-09-01 09:46:00,86.1,72.5,29.85,South,182,1.0,4.0,64,0.00,,,0.00,WeatherCatV1.21B27,2013-09-01 14:46:00,
2013-09-01 09:51:00,86.9,72.8,29.85,SW,217,2.0,3.0,63,0.00,,,0.00,WeatherCatV1.21B27,2013-09-01 14:51:00,
2013-09-01 09:56:00,87.2,72.6,29.85,South,190,2.0,4.0,62,0.00,,,0.00,WeatherCatV1.21B27,2013-09-01 14:56:00,
2013-09-01 10:01:00,87.3,72.2,29.85,SW,219,3.0,5.0,61,0.00,,,0.00,WeatherCatV1.21B27,2013-09-01 15:01:00,
2013-09-01 10:06:00,87.8,72.2,29.85,East,90,2.0,4.0,60,0.00,,,0.00,WeatherCatV1.21B27,2013-09-01 15:06:00,
2013-09-01 10:11:00,88.3,72.1,29.85,SSW,212,0.0,3.0,59,0.00,,,0.00,WeatherCatV1.21B27,2013-09-01 15:11:00,
2013-09-01 10:16:00,88.9,72.2,29.85,SSW,211,2.0,4.0,58,0.00,,,0.00,WeatherCatV1.21B27,2013-09-01 15:16:00,
2013-09-01 10:21:00,89.6,71.2,29.85,West,271,2.0,6.0,55,0.00,,,0.00,WeatherCatV1.21B27,2013-09-01 15:21:00,
2013-09-01 10:26:00,89.8,72.0,29.85,SW,216,2.0,3.0,56,0.00,,,0.00,WeatherCatV1.21B27,2013-09-01 15:26:00,
2013-09-01 10:31:00,90.0,72.2,29.85,WSW,254,1.0,2.0,56,0.00,,,0.00,WeatherCatV1.21B27,2013-09-01 15:31:00,
2013-09-01 10:36:00,90.7,71.7,29.85,South,188,1.0,3.0,54,0.00,,,0.00,WeatherCatV1.21B27,2013-09-01 15:36:00,
2013-09-01 10:41:00,91.5,71.9,29.85,WSW,253,1.0,3.0,53,0.00,,,0.00,WeatherCatV1.21B27,2013-09-01 15:41:00,
2013-09-01 10:46:00,91.9,71.1,29.85,SW,236,0.0,7.0,51,0.00,,,0.00,WeatherCatV1.21B27,2013-09-01 15:46:00,
2013-09-01 10:51:00,92.3,71.5,29.85,SW,226,2.0,4.0,51,0.00,,,0.00,WeatherCatV1.21B27,2013-09-01 15:51:00,
2013-09-01 10:56:00,92.4,71.0,29.85,WSW,256,2.0,4.0,50,0.00,,,0.00,WeatherCatV1.21B27,2013-09-01 15:56:00,
2013-09-01 11:01:00,92.8,70.8,29.85,WSW,257,1.0,2.0,49,0.00,,,0.00,WeatherCatV1.21B27,2013-09-01 16:01:00,
2013-09-01 11:06:00,93.1,70.4,29.85,SW,219,2.0,6.0,48,0.00,,,0.00,WeatherCatV1.21B27,2013-09-01 16:06:00,
2013-09-01 11:11:00,92.9,69.7,29.85,SW,229,1.0,6.0,47,0.00,,,0.00,WeatherCatV1.21B27,2013-09-01 16:11:00,
2013-09-01 11:16:00,93.3,70.0,29.85,SW,229,2.0,4.0,47,0.00,,,0.00,WeatherCatV1.21B27,2013-09-01 16:16:00,
2013-09-01 11:21:00,93.9,70.6,29.85,SSW,198,2.0,3.0,47,0.00,,,0.00,WeatherCatV1.21B27,2013-09-01 16:21:00,
2013-09-01 11:26:00,95.0,70.9,29.85,SE,124,0.0,2.0,46,0.00,,,0.00,WeatherCatV1.21B27,2013-09-01 16:26:00,
2013-09-01 11:31:00,95.9,71.1,29.85,SSE,151,2.0,4.0,45,0.00,,,0.00,WeatherCatV1.21B27,2013-09-01 16:31:00,
2013-09-01 11:36:00,95.6,70.8,29.84,SSE,155,0.0,2.0,45,0.00,,,0.00,WeatherCatV1.21B27,2013-09-01 16:36:00,
2013-09-01 11:41:00,96.3,69.4,29.84,SSE,149,2.0,4.0,42,0.00,,,0.00,WeatherCatV1.21B27,2013-09-01 16:41:00,
2013-09-01 11:46:00,96.8,69.9,29.85,South,183,0.0,4.0,42,0.00,,,0.00,WeatherCatV1.21B27,2013-09-01 16:46:00,
2013-09-01 11:51:00,96.4,69.5,29.84,West,276,2.0,3.0,42,0.00,,,0.00,WeatherCatV1.21B27,2013-09-01 16:51:00,
2013-09-01 11:56:00,96.4,69.5,29.84,ESE,119,1.0,3.0,42,0.00,,,0.00,WeatherCatV1.21B27,2013-09-01 16:56:00,
2013-09-01 12:01:00,97.2,69.5,29.84,ESE,120,2.0,3.0,41,0.00,,,0.00,WeatherCatV1.21B27,2013-09-01 17:01:00,
2013-09-01 12:06:00,97.5,69.1,29.84,WSW,237,3.0,7.0,40,0.00,,,0.00,WeatherCatV1.21B27,2013-09-01 17:06:00,
2013-09-01 12:11:00,97.2,69.5,29.83,NNW,345,1.0,2.0,41,0.00,,,0.00,WeatherCatV1.21B27,2013-09-01 17:11:00,
2013-09-01 12:16:00,97.6,69.1,29.83,South,188,2.0,3.0,40,0.00,,,0.00,WeatherCatV1.21B27,2013-09-01 17:16:00,
2013-09-01 12:21:00,98.5,69.9,29.83,ENE,68,3.0,4.0,40,0.00,,,0.00,WeatherCatV1.21B27,2013-09-01 17:21:00,
2013-09-01 12:26:00,98.4,69.8,29.82,ENE,65,2.0,2.0,40,0.00,,,0.00,WeatherCatV1.21B27,2013-09-01 17:26:00,
2013-09-01 12:31:00,99.2,69.8,29.82,ESE,121,2.0,2.0,39,0.00,,,0.00,WeatherCatV1.21B27,2013-09-01 17:31:00,
2013-09-01 12:36:00,99.9,68.9,29.82,SE,141,3.0,4.0,37,0.00,,,0.00,WeatherCatV1.21B27,2013-09-01 17:36:00,
2013-09-01 12:41:00,100.6,67.9,29.82,East,94,1.0,5.0,35,0.00,,,0.00,WeatherCatV1.21B27,2013-09-01 17:41:00,
2013-09-01 12:46:00,100.8,68.1,29.82,SE,143,3.0,4.0,35,0.00,,,0.00,WeatherCatV1.21B27,2013-09-01 17:46:00,
2013-09-01 12:51:00,101.3,68.5,29.82,SE,138,1.0,3.0,35,0.00,,,0.00,WeatherCatV1.21B27,2013-09-01 17:51:00,
2013-09-01 12:56:00,101.2,68.4,29.82,ESE,103,2.0,3.0,35,0.00,,,0.00,WeatherCatV1.21B27,2013-09-01 17:56:00,
2013-09-01 13:01:00,101.4,67.7,29.81,ENE,67,2.0,5.0,34,0.00,,,0.00,WeatherCatV1.21B27,2013-09-01 18:01:00,
2013-09-01 13:06:00,101.3,67.7,29.81,SSW,200,2.0,2.0,34,0.00,,,0.00,WeatherCatV1.21B27,2013-09-01 18:06:00,
2013-09-01 13:11:00,101.4,67.7,29.81,ESE,122,1.0,4.0,34,0.00,,,0.00,WeatherCatV1.21B27,2013-09-01 18:11:00,
2013-09-01 13:16:00,101.4,67.7,29.81,SSE,156,3.0,5.0,34,0.00,,,0.00,WeatherCatV1.21B27,2013-09-01 18:16:00,
2013-09-01 13:21:00,101.3,67.7,29.81,SSW,195,1.0,3.0,34,0.00,,,0.00,WeatherCatV1.21B27,2013-09-01 18:21:00,
2013-09-01 13:26:00,102.0,66.5,29.81,SSW,210,1.0,6.0,32,0.00,,,0.00,WeatherCatV1.21B27,2013-09-01 18:26:00,
2013-09-01 13:31:00,101.4,66.0,29.80,SSE,156,0.0,3.0,32,0.00,,,0.00,WeatherCatV1.21B27,2013-09-01 18:31:00,
2013-09-01 13:36:00,101.9,66.4,29.80,ESE,103,5.0,6.0,32,0.00,,,0.00,WeatherCatV1.21B27,2013-09-01 18:36:00,
2013-09-01 13:41:00,101.9,66.4,29.80,SSE,149,2.0,6.0,32,0.00,,,0.00,WeatherCatV1.21B27,2013-09-01 18:41:00,
2013-09-01 13:46:00,100.8,66.3,29.80,SE,126,3.0,4.0,33,0.00,,,0.00,WeatherCatV1.21B27,2013-09-01 18:46:00,
2013-09-01 13:51:00,101.0,67.4,29.80,ESE,114,3.0,3.0,34,0.00,,,0.00,WeatherCatV1.21B27,2013-09-01 18:51:00,
2013-09-01 13:57:00,101.9,67.3,29.80,SSW,193,2.0,4.0,33,0.00,,,0.00,WeatherCatV1.21B27,2013-09-01 18:57:00,
2013-09-01 14:02:00,103.4,66.8,29.80,ENE,73,3.0,3.0,31,0.00,,,0.00,WeatherCatV1.21B27,2013-09-01 19:02:00,
2013-09-01 14:07:00,103.6,67.0,29.80,East,86,2.0,3.0,31,0.00,,,0.00,WeatherCatV1.21B27,2013-09-01 19:07:00,
2013-09-01 14:12:00,103.1,66.5,29.79,SSE,155,3.0,4.0,31,0.00,,,0.00,WeatherCatV1.21B27,2013-09-01 19:12:00,
2013-09-01 14:17:00,103.0,67.4,29.79,ESE,108,3.0,4.0,32,0.00,,,0.00,WeatherCatV1.21B27,2013-09-01 19:17:00,
2013-09-01 14:22:00,102.7,67.1,29.79,SSE,161,4.0,6.0,32,0.00,,,0.00,WeatherCatV1.21B27,2013-09-01 19:22:00,
2013-09-01 14:27:00,103.2,66.6,29.79,SSE,162,3.0,6.0,31,0.00,,,0.00,WeatherCatV1.21B27,2013-09-01 19:27:00,
2013-09-01 14:32:00,102.2,65.8,29.79,ESE,106,1.0,2.0,31,0.00,,,0.00,WeatherCatV1.21B27,2013-09-01 19:32:00,
2013-09-01 14:37:00,103.2,66.6,29.78,SW,221,2.0,4.0,31,0.00,,,0.00,WeatherCatV1.21B27,2013-09-01 19:37:00,
2013-09-01 14:42:00,104.0,66.3,29.78,ESE,104,1.0,4.0,30,0.00,,,0.00,WeatherCatV1.21B27,2013-09-01 19:42:00,
2013-09-01 14:47:00,104.2,66.5,29.78,ESE,110,5.0,5.0,30,0.00,,,0.00,WeatherCatV1.21B27,2013-09-01 19:47:00,
2013-09-01 14:52:00,103.9,66.3,29.78,SSE,150,2.0,4.0,30,0.00,,,0.00,WeatherCatV1.21B27,2013-09-01 19:52:00,
2013-09-01 14:57:00,103.4,66.8,29.77,ENE,72,1.0,2.0,31,0.00,,,0.00,WeatherCatV1.21B27,2013-09-01 19:57:00,
2013-09-01 15:02:00,102.1,65.7,29.77,SSW,198,2.0,3.0,31,0.00,,,0.00,WeatherCatV1.21B27,2013-09-01 20:02:00,
2013-09-01 15:07:00,102.0,66.5,29.77,East,91,1.0,2.0,32,0.00,,,0.00,WeatherCatV1.21B27,2013-09-01 20:07:00,
2013-09-01 15:12:00,102.3,65.8,29.77,SSE,148,2.0,5.0,31,0.00,,,0.00,WeatherCatV1.21B27,2013-09-01 20:12:00,
2013-09-01 15:17:00,103.1,67.4,29.77,South,191,4.0,5.0,32,0.00,,,0.00,WeatherCatV1.21B27,2013-09-01 20:17:00,
2013-09-01 15:22:00,104.0,66.3,29.76,South,174,4.0,4.0,30,0.00,,,0.00,WeatherCatV1.21B27,2013-09-01 20:22:00,
2013-09-01 15:27:00,103.9,65.3,29.76,SSW,198,0.0,2.0,29,0.00,,,0.00,WeatherCatV1.21B27,2013-09-01 20:27:00,
2013-09-01 15:32:00,104.6,66.9,29.76,SE,143,3.0,5.0,30,0.00,,,0.00,WeatherCatV1.21B27,2013-09-01 20:32:00,
2013-09-01 15:37:00,103.8,66.2,29.76,East,86,3.0,3.0,30,0.00,,,0.00,WeatherCatV1.21B27,2013-09-01 20:37:00,
2013-09-01 15:42:00,103.6,66.0,29.76,SE,144,3.0,4.0,30,0.00,,,0.00,WeatherCatV1.21B27,2013-09-01 20:42:00,
2013-09-01 15:47:00,104.1,65.5,29.76,SE,136,3.0,3.0,29,0.00,,,0.00,WeatherCatV1.21B27,2013-09-01 20:47:00,
2013-09-01 15:52:00,104.3,65.6,29.76,SE,142,1.0,4.0,29,0.00,,,0.00,WeatherCatV1.21B27,2013-09-01 20:52:00,
2013-09-01 15:57:00,104.5,64.8,29.76,SE,133,1.0,5.0,28,0.00,,,0.00,WeatherCatV1.21B27,2013-09-01 20:57:00,
2013-09-01 16:02:00,103.7,66.1,29.76,SSE,150,1.0,6.0,30,0.00,,,0.00,WeatherCatV1.21B27,2013-09-01 21:02:00,
2013-09-01 16:07:00,103.1,64.6,29.75,SSE,157,5.0,5.0,29,0.00,,,0.00,WeatherCatV1.21B27,2013-09-01 21:07:00,
2013-09-01 16:12:00,102.9,64.4,29.75,South,184,3.0,3.0,29,0.00,,,0.00,WeatherCatV1.21B27,2013-09-01 21:12:00,
2013-09-01 16:17:00,103.6,65.0,29.75,SE,134,4.0,4.0,29,0.00,,,0.00,WeatherCatV1.21B27,2013-09-01 21:17:00,
2013-09-01 16:22:00,103.1,64.6,29.74,ESE,109,6.0,6.0,29,0.00,,,0.00,WeatherCatV1.21B27,2013-09-01 21:22:00,
2013-09-01 16:27:00,102.4,65.0,29.74,SE,134,6.0,6.0,30,0.00,,,0.00,WeatherCatV1.21B27,2013-09-01 21:27:00,
2013-09-01 16:32:00,101.9,64.6,29.74,SE,138,4.0,6.0,30,0.00,,,0.00,WeatherCatV1.21B27,2013-09-01 21:32:00,
2013-09-01 16:37:00,101.9,65.5,29.74,South,180,5.0,5.0,31,0.00,,,0.00,WeatherCatV1.21B27,2013-09-01 21:37:00,
2013-09-01 16:42:00,101.7,64.4,29.74,South,190,2.0,4.0,30,0.00,,,0.00,WeatherCatV1.21B27,2013-09-01 21:42:00,
2013-09-01 16:47:00,101.4,65.1,29.75,SE,139,1.0,3.0,31,0.00,,,0.00,WeatherCatV1.21B27,2013-09-01 21:47:00,
2013-09-01 16:52:00,101.9,65.5,29.75,South,177,1.0,3.0,31,0.00,,,0.00,WeatherCatV1.21B27,2013-09-01 21:52:00,
2013-09-01 16:57:00,102.1,64.7,29.75,South,188,1.0,2.0,30,0.00,,,0.00,WeatherCatV1.21B27,2013-09-01 21:57:00,
2013-09-01 17:02:00,101.6,64.3,29.75,ESE,120,2.0,2.0,30,0.00,,,0.00,WeatherCatV1.21B27,2013-09-01 22:02:00,
2013-09-01 17:07:00,100.7,63.5,29.74,East,96,2.0,3.0,30,0.00,,,0.00,WeatherCatV1.21B27,2013-09-01 22:07:00,
2013-09-01 17:12:00,99.9,63.8,29.75,SSE,162,0.0,3.0,31,0.00,,,0.00,WeatherCatV1.21B27,2013-09-01 22:12:00,
2013-09-01 17:17:00,99.4,64.3,29.74,South,174,1.0,3.0,32,0.00,,,0.00,WeatherCatV1.21B27,2013-09-01 22:17:00,
2013-09-01 17:22:00,99.0,63.0,29.74,SSE,150,1.0,4.0,31,0.00,,,0.00,WeatherCatV1.21B27,2013-09-01 22:22:00,
2013-09-01 17:27:00,99.1,63.1,29.74,SSW,200,0.0,3.0,31,0.00,,,0.00,WeatherCatV1.21B27,2013-09-01 22:27:00,
2013-09-01 17:32:00,99.9,62.8,29.75,South,185,0.0,2.0,30,0.00,,,0.00,WeatherCatV1.21B27,2013-09-01 22:32:00,
2013-09-01 17:37:00,99.8,63.7,29.75,South,181,2.0,3.0,31,0.00,,,0.00,WeatherCatV1.21B27,2013-09-01 22:37:00,
2013-09-01 17:42:00,99.5,63.4,29.75,SSE,150,2.0,3.0,31,0.00,,,0.00,WeatherCatV1.21B27,2013-09-01 22:42:00,
2013-09-01 17:47:00,99.5,63.4,29.75,ESE,119,2.0,2.0,31,0.00,,,0.00,WeatherCatV1.21B27,2013-09-01 22:47:00,
2013-09-01 17:52:00,100.1,64.0,29.74,SE,141,1.0,3.0,31,0.00,,,0.00,WeatherCatV1.21B27,2013-09-01 22:52:00,
2013-09-01 17:57:00,100.2,64.9,29.74,ESE,109,2.0,4.0,32,0.00,,,0.00,WeatherCatV1.21B27,2013-09-01 22:57:00,
2013-09-01 18:02:00,99.7,63.6,29.74,South,172,0.0,1.0,31,0.00,,,0.00,WeatherCatV1.21B27,2013-09-01 23:02:00,
2013-09-01 18:07:00,99.3,63.3,29.74,SSE,164,0.0,2.0,31,0.00,,,0.00,WeatherCatV1.21B27,2013-09-01 23:07:00,
2013-09-01 18:12:00,98.8,62.8,29.73,SSW,212,0.0,1.0,31,0.00,,,0.00,WeatherCatV1.21B27,2013-09-01 23:12:00,
2013-09-01 18:17:00,98.4,63.4,29.73,SSE,160,0.0,2.0,32,0.00,,,0.00,WeatherCatV1.21B27,2013-09-01 23:17:00,
2013-09-01 18:22:00,97.7,63.7,29.73,SE,145,1.0,2.0,33,0.00,,,0.00,WeatherCatV1.21B27,2013-09-01 23:22:00,
2013-09-01 18:27:00,97.1,63.2,29.73,ENE,68,0.0,0.0,33,0.00,,,0.00,WeatherCatV1.21B27,2013-09-01 23:27:00,
2013-09-01 18:32:00,96.7,63.7,29.73,SSE,164,1.0,3.0,34,0.00,,,0.00,WeatherCatV1.21B27,2013-09-01 23:32:00,
2013-09-01 18:37:00,96.4,63.4,29.73,SE,126,2.0,2.0,34,0.00,,,0.00,WeatherCatV1.21B27,2013-09-01 23:37:00,
2013-09-01 18:42:00,96.3,63.3,29.73,SSE,157,2.0,3.0,34,0.00,,,0.00,WeatherCatV1.21B27,2013-09-01 23:42:00,
2013-09-01 18:47:00,96.4,64.2,29.73,SSE,160,0.0,2.0,35,0.00,,,0.00,WeatherCatV1.21B27,2013-09-01 23:47:00,
2013-09-01 18:52:00,96.6,63.6,29.73,SE,132,0.0,2.0,34,0.00,,,0.00,WeatherCatV1.21B27,2013-09-01 23:52:00,
2013-09-01 18:57:00,96.5,64.3,29.73,SSE,150,3.0,4.0,35,0.00,,,0.00,WeatherCatV1.21B27,2013-09-01 23:57:00,
2013-09-01 19:02:00,96.2,64.1,29.73,South,178,1.0,5.0,35,0.00,,,0.00,WeatherCatV1.21B27,2013-09-02 00:02:00,
2013-09-01 19:07:00,96.1,64.8,29.74,South,188,4.0,4.0,36,0.00,,,0.00,WeatherCatV1.21B27,2013-09-02 00:07:00,
2013-09-01 19:12:00,95.8,64.5,29.74,SE,138,2.0,4.0,36,0.00,,,0.00,WeatherCatV1.21B27,2013-09-02 00:12:00,
2013-09-01 19:17:00,95.6,65.1,29.74,SSW,195,2.0,3.0,37,0.00,,,0.00,WeatherCatV1.21B27,2013-09-02 00:17:00,
2013-09-01 19:22:00,95.3,64.8,29.74,SSE,167,2.0,3.0,37,0.00,,,0.00,WeatherCatV1.21B27,2013-09-02 00:22:00,
2013-09-01 19:27:00,94.9,64.5,29.74,SE,146,2.0,3.0,37,0.00,,,0.00,WeatherCatV1.21B27,2013-09-02 00:27:00,
2013-09-01 19:32:00,94.6,65.0,29.74,SE,131,1.0,2.0,38,0.00,,,0.00,WeatherCatV1.21B27,2013-09-02 00:32:00,
2013-09-01 19:37:00,94.3,64.7,29.74,SSE,155,0.0,1.0,38,0.00,,,0.00,WeatherCatV1.21B27,2013-09-02 00:37:00,
2013-09-01 19:42:00,93.9,65.1,29.74,SSE,155,0.0,0.0,39,0.00,,,0.00,WeatherCatV1.21B27,2013-09-02 00:42:00,
2013-09-01 19:47:00,93.4,65.4,29.74,SSE,155,0.0,1.0,40,0.00,,,0.00,WeatherCatV1.21B27,2013-09-02 00:47:00,
2013-09-01 19:52:00,93.1,65.2,29.74,South,169,0.0,0.0,40,0.00,,,0.00,WeatherCatV1.21B27,2013-09-02 00:52:00,
2013-09-01 19:57:00,92.7,64.8,29.75,SE,142,0.0,0.0,40,0.00,,,0.00,WeatherCatV1.21B27,2013-09-02 00:57:00,
2013-09-01 20:02:00,92.5,65.3,29.75,SE,124,0.0,1.0,41,0.00,,,0.00,WeatherCatV1.21B27,2013-09-02 01:02:00,
2013-09-01 20:07:00,92.4,65.2,29.75,SSE,166,1.0,1.0,41,0.00,,,0.00,WeatherCatV1.21B27,2013-09-02 01:07:00,
2013-09-01 20:12:00,92.2,65.8,29.75,SSE,167,0.0,1.0,42,0.00,,,0.00,WeatherCatV1.21B27,2013-09-02 01:12:00,
2013-09-01 20:17:00,91.9,65.5,29.75,SSE,167,0.0,1.0,42,0.00,,,0.00,WeatherCatV1.21B27,2013-09-02 01:17:00,
2013-09-01 20:22:00,91.6,65.9,29.75,South,169,1.0,1.0,43,0.00,,,0.00,WeatherCatV1.21B27,2013-09-02 01:22:00,
2013-09-01 20:27:00,91.4,65.7,29.75,South,189,0.0,1.0,43,0.00,,,0.00,WeatherCatV1.21B27,2013-09-02 01:27:00,
2013-09-01 20:32:00,91.1,65.4,29.75,South,190,0.0,0.0,43,0.00,,,0.00,WeatherCatV1.21B27,2013-09-02 01:32:00,
2013-09-01 20:37:00,91.0,65.3,29.75,SSE,167,0.0,0.0,43,0.00,,,0.00,WeatherCatV1.21B27,2013-09-02 01:37:00,
2013-09-01 20:42:00,90.9,65.9,29.75,SSE,167,2.0,2.0,44,0.00,,,0.00,WeatherCatV1.21B27,2013-09-02 01:42:00,
2013-09-01 20:47:00,90.9,65.3,29.76,SSE,158,1.0,2.0,43,0.00,,,0.00,WeatherCatV1.21B27,2013-09-02 01:47:00,
2013-09-01 20:52:00,90.9,65.3,29.76,SSE,159,1.0,2.0,43,0.00,,,0.00,WeatherCatV1.21B27,2013-09-02 01:52:00,
2013-09-01 20:57:00,90.8,65.2,29.76,South,170,0.0,0.0,43,0.00,,,0.00,WeatherCatV1.21B27,2013-09-02 01:57:00,
2013-09-01 21:02:00,90.8,65.2,29.77,SSE,160,0.0,0.0,43,0.00,,,0.00,WeatherCatV1.21B27,2013-09-02 02:02:00,
2013-09-01 21:07:00,90.6,65.0,29.76,SSE,168,1.0,2.0,43,0.00,,,0.00,WeatherCatV1.21B27,2013-09-02 02:07:00,
2013-09-01 21:12:00,90.6,65.0,29.76,SSE,153,0.0,3.0,43,0.00,,,0.00,WeatherCatV1.21B27,2013-09-02 02:12:00,
2013-09-01 21:17:00,90.5,64.9,29.77,South,185,1.0,2.0,43,0.00,,,0.00,WeatherCatV1.21B27,2013-09-02 02:17:00,
2013-09-01 21:22:00,90.4,64.8,29.77,SSW,196,0.0,3.0,43,0.00,,,0.00,WeatherCatV1.21B27,2013-09-02 02:22:00,
2013-09-01 21:27:00,90.3,64.7,29.77,SSE,159,2.0,2.0,43,0.00,,,0.00,WeatherCatV1.21B27,2013-09-02 02:27:00,
2013-09-01 21:32:00,90.1,65.2,29.77,SE,145,2.0,3.0,44,0.00,,,0.00,WeatherCatV1.21B27,2013-09-02 02:32:00,
2013-09-01 21:37:00,90.0,65.1,29.78,SSE,155,1.0,2.0,44,0.00,,,0.00,WeatherCatV1.21B27,2013-09-02 02:37:00,
2013-09-01 21:42:00,89.9,65.0,29.78,SSE,160,0.0,3.0,44,0.00,,,0.00,WeatherCatV1.21B27,2013-09-02 02:42:00,
2013-09-01 21:47:00,89.7,64.8,29.78,South,191,0.0,2.0,44,0.00,,,0.00,WeatherCatV1.21B27,2013-09-02 02:47:00,
2013-09-01 21:52:00,89.5,65.3,29.78,South,183,1.0,2.0,45,0.00,,,0.00,WeatherCatV1.21B27,2013-09-02 02:52:00,
2013-09-01 21:57:00,89.3,65.1,29.79,SSE,165,1.0,2.0,45,0.00,,,0.00,WeatherCatV1.21B27,2013-09-02 02:57:00,
2013-09-01 22:02:00,89.2,65.0,29.79,South,179,1.0,2.0,45,0.00,,,0.00,WeatherCatV1.21B27,2013-09-02 03:02:00,
2013-09-01 22:07:00,89.0,64.9,29.79,South,181,0.0,0.0,45,0.00,,,0.00,WeatherCatV1.21B27,2013-09-02 03:07:00,
2013-09-01 22:12:00,88.8,64.7,29.79,SSE,150,3.0,4.0,45,0.00,,,0.00,WeatherCatV1.21B27,2013-09-02 03:12:00,
2013-09-01 22:17:00,88.8,65.3,29.79,South,174,1.0,3.0,46,0.00,,,0.00,WeatherCatV1.21B27,2013-09-02 03:17:00,
2013-09-01 22:22:00,88.8,65.3,29.79,SSE,167,1.0,3.0,46,0.00,,,0.00,WeatherCatV1.21B27,2013-09-02 03:22:00,
2013-09-01 22:27:00,88.6,65.1,29.80,SSW,194,0.0,3.0,46,0.00,,,0.00,WeatherCatV1.21B27,2013-09-02 03:27:00,
2013-09-01 22:32:00,88.5,65.0,29.80,SSE,167,0.0,2.0,46,0.00,,,0.00,WeatherCatV1.21B27,2013-09-02 03:32:00,
2013-09-01 22:37:00,88.3,64.9,29.80,SSW,193,2.0,2.0,46,0.00,,,0.00,WeatherCatV1.21B27,2013-09-02 03:37:00,
2013-09-01 22:42:00,88.0,65.2,29.80,SSE,156,1.0,1.0,47,0.00,,,0.00,WeatherCatV1.21B27,2013-09-02 03:42:00,
2013-09-01 22:47:00,87.8,65.0,29.80,SE,139,0.0,2.0,47,0.00,,,0.00,WeatherCatV1.21B27,2013-09-02 03:47:00,
2013-09-01 22:52:00,87.6,64.8,29.80,SSW,212,0.0,0.0,47,0.00,,,0.00,WeatherCatV1.21B27,2013-09-02 03:52:00,
2013-09-01 22:57:00,87.2,65.1,29.80,SSW,204,0.0,0.0,48,0.00,,,0.00,WeatherCatV1.21B27,2013-09-02 03:57:00,
2013-09-01 23:01:00,86.9,65.4,29.80,SSE,150,0.0,0.0,49,0.00,,,0.00,WeatherCatV1.21B27,2013-09-02 04:01:00,
2013-09-01 23:06:00,86.7,65.2,29.80,SSE,162,0.0,0.0,49,0.00,,,0.00,WeatherCatV1.21B27,2013-09-02 04:06:00,
2013-09-01 23:11:00,86.4,64.9,29.80,SE,136,1.0,1.0,49,0.00,,,0.00,WeatherCatV1.21B27,2013-09-02 04:11:00,
2013-09-01 23:16:00,86.5,65.0,29.80,SSW,203,2.0,3.0,49,0.00,,,0.00,WeatherCatV1.21B27,2013-09-02 04:16:00,
2013-09-01 23:21:00,86.6,64.5,29.80,SSE,162,1.0,2.0,48,0.00,,,0.00,WeatherCatV1.21B27,2013-09-02 04:21:00,
2013-09-01 23:26:00,86.6,65.1,29.80,South,179,1.0,3.0,49,0.00,,,0.00,WeatherCatV1.21B27,2013-09-02 04:26:00,
2013-09-01 23:31:00,86.6,65.1,29.80,SE,136,2.0,3.0,49,0.00,,,0.00,WeatherCatV1.21B27,2013-09-02 04:31:00,
2013-09-01 23:36:00,86.5,65.6,29.81,SSE,168,2.0,4.0,50,0.00,,,0.00,WeatherCatV1.21B27,2013-09-02 04:36:00,
2013-09-01 23:41:00,86.3,65.4,29.81,South,176,2.0,3.0,50,0.00,,,0.00,WeatherCatV1.21B27,2013-09-02 04:41:00,
2013-09-01 23:46:00,86.2,65.9,29.81,WNW,284,0.0,4.0,51,0.00,,,0.00,WeatherCatV1.21B27,2013-09-02 04:46:00,
2013-09-01 23:51:00,86.1,66.4,29.81,SSE,165,2.0,3.0,52,0.00,,,0.00,WeatherCatV1.21B27,2013-09-02 04:51:00,
2013-09-01 23:56:00,85.9,67.3,29.81,SW,221,2.0,2.0,54,0.00,,,0.00,WeatherCatV1.21B27,2013-09-02 04:56:00,